Johnstown, PA

5:18 PM EDT on October 23, 2017 (GMT -0400)
Johnstown-Cambria County

Weather History for KJST - February, 2011

Change the Weather History Date:

Friday, February 18, 2011

  Actual Average Record
Temperature  
Mean Temperature 50 °F 28 °F  
Max Temperature 60 °F 35 °F 70 °F (1981)
Min Temperature 37 °F 20 °F -8 °F (1958)
Degree Days  
Heating Degree Days 16 37  
Month to date heating degree days 700  
Since 1 July heating degree days 4517  
Cooling Degree Days 0 0  
Month to date cooling degree days 0  
Year to date cooling degree days 0  
Moisture  
Dew Point 31 °F    
Average Humidity 50    
Maximum Humidity 77    
Minimum Humidity 20    
Precipitation  
Precipitation 0.00 in 0.08 in 1.04 in (1893)
Month to date precipitation 1.49  
Year to date precipitation 4.37  
Sea Level Pressure  
Sea Level Pressure 29.87 in    
Wind  
Wind Speed 19 mph (WSW)    
Max Wind Speed 25 mph    
Max Gust Speed 47 mph    
Visibility 10 miles    
Events      
T = Trace of Precipitation, MM = Missing Value Source: NWS Daily Summary

Daily Weather History Graph

Daily Weather History Graph

Search for Another Location

Airport or City:

Trip Planner

Search our weather history database for the weather conditions in past years. The results will help you decide how hot, cold, wet, or windy it might be!

Date:

Astronomy

Feb. 18, 2011 Rise Set
Actual Time 7:05 AM EST 5:54 PM EST
Civil Twilight 6:37 AM EST 6:21 PM EST
Nautical Twilight 6:05 AM EST 6:53 PM EST
Astronomical Twilight 5:34 AM EST 7:25 PM EST
Moon 6:44 PM EST (2/18) 6:53 AM EST (2/18)
Length of Visible Light 11h 44m
Length of Day
10h 48m
Full, 100% of the Moon is Illuminated
Feb 18
Full
Feb 24
Last Quarter
Mar 4
New
Mar 12
First Quarter
Mar 19
Full

Hourly Weather History & Observations

Time (EST) Temp. Windchill Dew Point Humidity Pressure Visibility Wind Dir Wind Speed Gust Speed Precip Events Conditions
12:54 AM 53.1 °F - 30.9 °F 43% 29.88 in 10.0 mi SW 13.8 mph 23.0 mph N/A   Clear
1:54 AM 53.1 °F - 34.0 °F 48% 29.88 in 10.0 mi West 21.9 mph 32.2 mph N/A   Overcast
2:54 AM 53.1 °F - 37.0 °F 55% 29.87 in 10.0 mi WSW 21.9 mph 29.9 mph N/A   Overcast
3:14 AM 51.8 °F - 39.2 °F 62% 29.87 in 10.0 mi WSW 24.2 mph 34.5 mph N/A   Overcast
3:54 AM 51.1 °F - 39.9 °F 66% 29.86 in 10.0 mi WSW 17.3 mph 34.5 mph N/A   Overcast
4:54 AM 52.0 °F - 41.0 °F 66% 29.87 in 10.0 mi WSW 18.4 mph 29.9 mph N/A   Overcast
5:54 AM 51.1 °F - 42.1 °F 71% 29.87 in 10.0 mi WSW 13.8 mph 23.0 mph N/A   Overcast
6:54 AM 51.1 °F - 43.0 °F 74% 29.88 in 10.0 mi SW 13.8 mph 21.9 mph N/A   Overcast
7:54 AM 52.0 °F - 44.1 °F 74% 29.87 in 10.0 mi SW 13.8 mph - N/A   Overcast
8:54 AM 52.0 °F - 45.0 °F 77% 29.88 in 10.0 mi WSW 10.4 mph - N/A   Overcast
9:54 AM 53.1 °F - 45.0 °F 74% 29.87 in 10.0 mi WSW 15.0 mph 20.7 mph N/A   Overcast
10:54 AM 54.0 °F - 45.0 °F 72% 29.87 in 10.0 mi WSW 16.1 mph 33.4 mph N/A   Overcast
11:43 AM 55.4 °F - 42.8 °F 63% 29.87 in 10.0 mi West 25.3 mph 40.3 mph N/A   Overcast
11:54 AM 55.9 °F - 43.0 °F 62% 29.87 in 10.0 mi West 15.0 mph 31.1 mph N/A   Overcast
12:54 PM 59.0 °F - 42.1 °F 53% 29.84 in 10.0 mi West 21.9 mph 32.2 mph N/A   Scattered Clouds
1:54 PM 59.0 °F - 39.9 °F 49% 29.82 in 10.0 mi West 20.7 mph 34.5 mph N/A   Overcast
2:54 PM 60.8 °F - 35.6 °F 39% 29.82 in 10.0 mi West 25.3 mph 36.8 mph N/A   Mostly Cloudy
3:54 PM 57.2 °F - 26.6 °F 31% 29.83 in 10.0 mi West 25.3 mph 33.4 mph N/A   Mostly Cloudy
4:54 PM 55.0 °F - 17.1 °F 23% 29.84 in 10.0 mi West 21.9 mph 40.3 mph N/A   Mostly Cloudy
5:54 PM 52.0 °F - 12.0 °F 20% 29.87 in 10.0 mi West 21.9 mph 44.9 mph N/A   Clear
6:54 PM 48.9 °F - 12.9 °F 24% 29.89 in 10.0 mi West 25.3 mph 40.3 mph N/A   Clear
7:54 PM 45.0 °F 37.1 °F 12.0 °F 26% 29.91 in 10.0 mi West 19.6 mph 36.8 mph N/A   Clear
8:54 PM 43.0 °F 33.5 °F 10.9 °F 27% 29.93 in 10.0 mi West 24.2 mph 41.4 mph N/A   Clear
9:54 PM 41.0 °F 32.5 °F 10.4 °F 29% 29.90 in 10.0 mi West 17.3 mph 31.1 mph N/A   Clear
10:54 PM 39.9 °F 30.5 °F 12.9 °F 33% 29.93 in 10.0 mi West 19.6 mph 39.1 mph N/A   Clear
11:54 PM 37.9 °F 27.1 °F 14.0 °F 38% 29.93 in 10.0 mi West 23.0 mph 47.2 mph N/A   Clear